Location: Ottawa
(45.4170°N, 75.7000°W)
Time: 21:53:59
(UTC-04:00)

ISS - Pass Details

Date: 30 September 2020
Orbit: 417 x 420 km, 51.6° (Epoch: 25 October)

Event Time Altitude Azimuth Distance (km) Brightness Sun altitude
Rises 20:30:01 0° 299° (WNW) 2,370 1.5 -19.3°
Reaches altitude 10° 20:32:09 10° 304° (NW) 1,505 0.1 -19.6°
Enters shadow 20:35:21 54° 14° (NNE) 517 -3.4 -20.2°
